Regional Weather Roundup
Issued by NWS

Home | Current Version | Previous Version | Graphics & Text | Print | Product List | Glossary Off
Versions: 1 2 3 4 5 6 7 8 9 10 11 12 13 14 15 16 17 18 19 20 21 22 23 24 25 26 27 28 29 30 31 32 33 34 35 36 37 38 39 40 41 42 43 44 45 46 47 48 49 50

000
ASUS43 KMPX 011601
RWRMN
WEATHER ROUNDUP FOR MINNESOTA
NATIONAL WEATHER SERVICE TWIN CITIES/CHANHASSEN MN
1100 AM CDT FRI AUG 01 2014


NOTE: "FAIR" INDICATES FEW OR NO CLOUDS BELOW 12,000 FEET WITH NO
SIGNIFICANT WEATHER AND/OR OBSTRUCTIONS TO VISIBILITY. N/A MEANS
CURRENT SKY AND/OR WEATHER CONDITIONS ARE NOT AVAILABLE.

MNZ060>063-068>070-011700-
   Twin Cities Metro

CITY           SKY/WX    TMP DP  RH WIND       PRES   REMARKS
TWIN CITIES    SUNNY     80  59  48 W5        30.06S
ST PAUL        SUNNY     79  62  56 NE3       30.06S
CRYSTAL        SUNNY     80  60  50 CALM      30.05S
BLAINE         SUNNY     79  64  61 CALM      30.06S
LAKEVILLE      SUNNY     75  61  60 W3        30.07S
EDEN PRAIRIE   SUNNY     77  64  64 VRB3      30.06S
SOUTH ST PAUL  SUNNY     78  62  56 CALM      30.06S
LAKE ELMO      FAIR      77  63  61 NW6       30.07S
$$
MNZ001>005-007-008-013>017-022>024-027-028-011700-
   Northwest Minnesota

CITY           SKY/WX    TMP DP  RH WIND       PRES   REMARKS
BEMIDJI        SUNNY     74  56  52 NW7       30.07R
HALLOCK        SUNNY     75  61  60 NW5       30.07S
ROSEAU         SUNNY     73  61  64 N3        30.08R
WARROAD        SUNNY     72  63  73 N5        30.08R
THIEF RVR FALL SUNNY     73  57  56 N8        30.08R
CROOKSTON      SUNNY     75  59  57 N6        30.08R
FOSSTON        SUNNY     73  57  56 N7        30.09R
DETROIT LAKES  SUNNY     75  61  60 N3        30.09R
MOORHEAD       SUNNY     75  66  73 N3        30.08R
PARK RAPIDS    SUNNY     76  54  46 N7        30.07R
$$
MNZ006-009>011-018-025>026-011700-
   North Central Minnesota

CITY           SKY/WX    TMP DP  RH WIND       PRES   REMARKS
BAUDETTE       SUNNY     74  64  71 N6        30.08R
FLAG ISLAND    SUNNY     72  54  53 N3        30.07R
INTL FALLS     SUNNY     72  58  61 E5        30.06S
WASKISH        SUNNY     70  63  78 CALM      30.06S
BIG FORK       SUNNY     73  63  68 W1        30.06S
LONGVILLE      SUNNY     73  63  68 CALM      30.06S
GRAND RAPIDS   SUNNY     73  57  56 NW3       30.07R
CRANE LAKE     SUNNY     68  54  60 CALM      30.08R
ORR            SUNNY     73  54  49 CALM      30.04S
COOK           SUNNY     72  57  60 CALM      30.07R
$$
MNZ012-019>021-037-011700-
   Northeast Minnesota

CITY           SKY/WX    TMP DP  RH WIND       PRES   REMARKS
DULUTH         SUNNY     70  55  59 SE3       30.08R
ELY            SUNNY     70  52  52 CALM      30.07S
HIBBING        SUNNY     75  57  53 CALM      30.07S
EVELETH        SUNNY     72  55  56 SW3       30.08S
DULUTH HARBOR  SUNNY     63  55  77 E3        30.09R
TWO HARBORS    SUNNY     68  55  64 SE5       30.06R
SILVER BAY     SUNNY     70  57  64 CALM      30.06R
GRAND MARAIS     N/A     65  50  58 E3        30.07R
G MARAIS ARPRT MOSUNNY   66  52  59 S5        30.10S
$$
MNZ029>031-032-039>041-046>048-054>057-064-011700-
   West Central Minnesota

CITY           SKY/WX    TMP DP  RH WIND       PRES   REMARKS
FERGUS FALLS   SUNNY     73  61  64 NW6       30.07S
WHEATON        MOSUNNY   75  63  64 W6        30.10R
MORRIS         SUNNY     77  63  61 NW6       30.08R
ALEXANDRIA     SUNNY     76  61  59 W5        30.10R
ELBOW LAKE     FAIR      74  63  68 NW7       30.08R
WADENA         SUNNY     73  61  64 CALM      30.07S
GLENWOOD       SUNNY     79  63  57 W5        30.09S
APPLETON       SUNNY     79  61  53 W5        30.08S
BENSON         SUNNY     75  63  64 NW6       30.09R
ORTONVILLE     SUNNY     79  59  50 N5        30.09S
MADISON        SUNNY     79  63  57 CALM      30.09S
WILLMAR        FAIR      77  61  57 NW5       30.09S
$$
MNZ033>034-036-042>043-049>051-058-059-011700-
   Central Minnesota

CITY           SKY/WX    TMP DP  RH WIND       PRES   REMARKS
ST CLOUD       MOSUNNY   81  58  45 NW5       30.07R
SAUK CENTRE    FAIR      77  58  51 CALM      30.08S
PAYNESVILLE    MOSUNNY   75  56  52 CALM      30.09R
AITKIN         SUNNY     79  63  57 SW3       30.05F
PINE RIVER     SUNNY     75  63  64 NW3       30.09S
BRAINERD       PTSUNNY   75  60  59 W5        30.07S
STAPLES        MOSUNNY   75  57  53 CALM      30.07S
LONG PRAIRIE   FAIR      73  59  60 CALM      30.08S
LITTLE FALLS   MOSUNNY   77  59  53 CALM      30.07S
LITCHFIELD     SUNNY     77  64  65 W6        30.08S
BUFFALO        SUNNY     76  61  59 W5        30.07S
MAPLE LAKE     SUNNY     78  65  64 CALM      30.08S
$$
MNZ037-044-045-052-053-011700-
   East Central Minnesota

CITY           SKY/WX    TMP DP  RH WIND       PRES   REMARKS
PRINCETON      SUNNY     79  59  50 CALM      30.06S
MORA           SUNNY     73  59  60 CALM      30.08S
CAMBRIDGE      SUNNY     79  61  53 N3        30.05S
RUSH CITY      SUNNY     75  61  61 CALM      30.06F
MOOSE LAKE     SUNNY     72  57  60 CALM      30.05S
HINCKLEY       FAIR      73  63  68 CALM      30.07S
CLOQUET        SUNNY     70  55  60 SE3       30.07S
MCGREGOR       SUNNY     73  59  60 W3        30.07S
$$
MNZ071>073-080-081-089-090-097-098-011700-
   Southwest Minnesota

CITY           SKY/WX    TMP DP  RH WIND       PRES   REMARKS
MONTEVIDEO     SUNNY     79  66  65 N3        30.10R
GRANITE FALLS  SUNNY     74  61  63 W3        30.11R
CANBY          SUNNY     78  57  47 CALM      30.11R
MARSHALL       SUNNY     77  57  50 N5        30.09S
REDWOOD FALLS  SUNNY     77  60  55 VRB5      30.09R
OLIVIA         MOSUNNY   73  61  64 W5        30.08S
PIPESTONE      SUNNY     73  59  60 CALM      30.12R
WINDOM         SUNNY     75  57  53 CALM      30.11S
WORTHINGTON    SUNNY     73  61  64 NW5       30.13S
JACKSON        SUNNY     75  57  53 N3        30.12R
TRACY          SUNNY     77  58  51 CALM      30.11S
SLAYTON        SUNNY     75  54  48 CALM      30.13R
$$
MNZ065>067-074>077-082>085-091>093-011700-
   South Central Minnesota

CITY           SKY/WX    TMP DP  RH WIND       PRES   REMARKS
MANKATO        MOSUNNY   73  61  64 NW3       30.09S
NEW ULM        SUNNY     75  57  53 W6        30.09R
ST JAMES       SUNNY     79  59  50 CALM      30.10S
FAIRMONT       SUNNY     79  59  50 CALM      30.10S
GLENCOE        MOSUNNY   78  60  53 SW5       30.07S
FARIBAULT      MOSUNNY   81  55  41 SW6       30.09R
OWATONNA       SUNNY     75  59  57 NW3       30.09S
WASECA         SUNNY     72  57  60 W3        30.11S
ALBERT LEA     SUNNY     77  59  53 NW3       30.09S
$$
MNZ078>079-086>088-094>096-011700-
   Southeast Minnesota

CITY           SKY/WX    TMP DP  RH WIND       PRES   REMARKS
ROCHESTER      SUNNY     77  59  53 NW5       30.11R
RED WING       SUNNY     79  63  57 CALM      30.05S
STANTON        SUNNY     78  60  54 CALM      30.07R
DODGE CENTER   SUNNY     75  59  57 W5        30.10R
WINONA         SUNNY     77  61  57 CALM      30.07S
AUSTIN         SUNNY     75  57  53 CALM      30.09S
PRESTON        SUNNY     75  63  66 N3        30.10S
$$
ABBREVIATIONS USED IN REMARKS
   TC - TEMPERATURES IN CELSIUS
  WCI - WIND CHILL INDEX
   HX - HEAT INDEX
  VSB - VISIBILITY
$$


USA.gov is the U.S. government's official web portal to all federal, state and local government web resources and services.